| time (UTC) | temp C | wind direction | speed KPH | gust KPH | rain 1hr cm | rain 24hr cm | rain mn cm | humidity % | barometer mb |
| 20260507071607 | 8 | 0.0 | 0.0 | 0.00 | 0.89 | 0.00 | 78 | 1011.3 | |
| 20260507070402 | 8 | 229 | 1.6 | 1.6 | 0.00 | 0.89 | 0.00 | 76 | 1011.3 |
| 20260507065254 | 8 | 0.0 | 0.0 | 0.00 | 0.89 | 0.00 | 78 | 1011.2 | |
| 20260507064036 | 9 | 0.0 | 0.0 | 0.00 | 0.89 | 0.00 | 76 | 1011.2 | |
| 20260507062818 | 10 | 231 | 0.0 | 1.6 | 0.00 | 0.89 | 0.00 | 75 | 1011.3 |
| 20260507061551 | 10 | 264 | 1.6 | 3.2 | 0.00 | 0.89 | 0.00 | 75 | 1011.3 |
| 20260507060346 | 10 | 241 | 1.6 | 3.2 | 0.00 | 0.89 | 0.00 | 76 | 1011.2 |
| 20260507055202 | 10 | 269 | 3.2 | 3.2 | 0.00 | 0.89 | 0.00 | 77 | 1011.1 |
| 20260507054019 | 10 | 252 | 1.6 | 3.2 | 0.00 | 0.89 | 0.00 | 80 | 1011.2 |
| 20260507052731 | 10 | 239 | 3.2 | 3.2 | 0.00 | 0.89 | 0.00 | 80 | 1011.3 |
| 20260507051606 | 10 | 212 | 0.0 | 1.6 | 0.00 | 0.89 | 0.00 | 82 | 1011.1 |
| 20260507050444 | 10 | 237 | 1.6 | 1.6 | 0.00 | 0.89 | 0.00 | 83 | 1010.8 |
| 20260507045306 | 10 | 0.0 | 0.0 | 0.00 | 0.89 | 0.00 | 84 | 1011.0 | |
| 20260507044018 | 10 | 174 | 0.0 | 1.6 | 0.00 | 0.89 | 0.00 | 85 | 1010.8 |
| 20260507042731 | 10 | 229 | 0.0 | 1.6 | 0.00 | 0.89 | 0.00 | 85 | 1010.7 |
| 20260507041548 | 10 | 0.0 | 0.0 | 0.00 | 0.89 | 0.00 | 87 | 1010.8 | |
| 20260507040403 | 10 | 247 | 3.2 | 4.8 | 0.00 | 0.89 | 0.00 | 87 | 1010.9 |
| 20260507035219 | 10 | 0.0 | 0.0 | 0.00 | 0.89 | 0.89 | 88 | 1010.6 | |
| 20260507033931 | 10 | 0.0 | 0.0 | 0.00 | 0.89 | 0.89 | 88 | 1010.7 | |
| 20260507032746 | 10 | 0.0 | 0.0 | 0.00 | 0.89 | 0.89 | 88 | 1010.8 | |
| 20260507031608 | 9 | 211 | 0.0 | 1.6 | 0.00 | 0.89 | 0.89 | 88 | 1011.1 |
| 20260507030402 | 10 | 219 | 1.6 | 1.6 | 0.00 | 0.89 | 0.89 | 87 | 1010.6 |
| 20260507025220 | 10 | 199 | 0.0 | 1.6 | 0.00 | 0.89 | 0.89 | 84 | 1010.6 |
| 20260507023931 | 10 | 197 | 0.0 | 1.6 | 0.00 | 0.89 | 0.89 | 83 | 1010.6 |
| 20260507022747 | 11 | 0.0 | 0.0 | 0.00 | 0.89 | 0.89 | 82 | 1010.6 | |
| 20260507021608 | 11 | 63 | 3.2 | 4.8 | 0.00 | 0.89 | 0.89 | 81 | 1010.9 |
| 20260507020403 | 11 | 101 | 1.6 | 3.2 | 0.00 | 0.89 | 0.89 | 81 | 1011.0 |
| 20260507015219 | 11 | 46 | 1.6 | 3.2 | 0.00 | 0.89 | 0.89 | 81 | 1011.2 |
| 20260507013950 | 11 | 191 | 1.6 | 1.6 | 0.00 | 0.89 | 0.89 | 82 | 1011.1 |
| 20260507012747 | 11 | 43 | 1.6 | 3.2 | 0.00 | 0.89 | 0.89 | 82 | 1011.0 |
| 20260507011603 | 11 | 275 | 1.6 | 1.6 | 0.00 | 0.89 | 0.89 | 82 | 1011.1 |
| 20260507010418 | 11 | 0.0 | 0.0 | 0.00 | 0.89 | 0.89 | 82 | 1011.1 | |
| 20260507005152 | 11 | 326 | 1.6 | 3.2 | 0.00 | 0.89 | 0.89 | 82 | 1010.8 |
| 20260507003947 | 11 | 55 | 1.6 | 4.8 | 0.00 | 0.89 | 0.89 | 81 | 1010.4 |
| 20260507002748 | 11 | 319 | 3.2 | 4.8 | 0.00 | 0.89 | 0.89 | 81 | 1010.1 |
| 20260507001604 | 11 | 297 | 3.2 | 4.8 | 0.00 | 0.89 | 0.89 | 81 | 1010.0 |
| 20260507000405 | 12 | 21 | 1.6 | 4.8 | 0.00 | 0.89 | 0.89 | 82 | 1009.6 |
| 20260506235218 | 12 | 177 | 3.2 | 4.8 | 0.00 | 0.89 | 0.89 | 82 | 1009.3 |
| 20260506233931 | 12 | 261 | 3.2 | 4.8 | 0.00 | 0.89 | 0.89 | 82 | 1009.1 |
| 20260506232747 | 12 | 328 | 3.2 | 4.8 | 0.00 | 0.89 | 0.89 | 82 | 1009.1 |
| 20260506231604 | 12 | 345 | 3.2 | 4.8 | 0.00 | 0.89 | 0.89 | 81 | 1009.0 |
| 20260506230419 | 12 | 337 | 4.8 | 8.0 | 0.00 | 0.89 | 0.89 | 81 | 1008.7 |
| 20260506225131 | 13 | 270 | 1.6 | 3.2 | 0.00 | 0.89 | 0.89 | 82 | 1008.5 |
| 20260506223948 | 13 | 330 | 4.8 | 4.8 | 0.00 | 0.89 | 0.89 | 82 | 1008.4 |
| 20260506222844 | 13 | 337 | 4.8 | 9.7 | 0.00 | 0.89 | 0.89 | 82 | 1008.3 |
| 20260506221619 | 13 | 347 | 4.8 | 8.0 | 0.00 | 0.89 | 0.89 | 84 | 1007.9 |
| 20260506220420 | 13 | 328 | 4.8 | 4.8 | 0.00 | 0.89 | 0.89 | 84 | 1007.8 |
| 20260506215131 | 13 | 356 | 6.4 | 12.9 | 0.00 | 0.89 | 0.89 | 84 | 1007.3 |
| 20260506214019 | 14 | 340 | 6.4 | 9.7 | 0.00 | 0.89 | 0.89 | 83 | 1007.1 |
| 20260506212818 | 15 | 331 | 9.7 | 16.1 | 0.00 | 0.89 | 0.89 | 83 | 1006.7 |
| 20260506211548 | 17 | 359 | 4.8 | 11.3 | 0.00 | 0.89 | 0.89 | 79 | 1006.5 |
| 20260506210423 | 17 | 227 | 4.8 | 8.0 | 0.00 | 0.89 | 0.89 | 81 | 1006.0 |
| 20260506205219 | 17 | 220 | 4.8 | 9.7 | 0.03 | 0.89 | 0.89 | 83 | 1005.8 |
| 20260506203931 | 17 | 261 | 4.8 | 9.7 | 0.08 | 0.89 | 0.89 | 82 | 1005.7 |
| 20260506202747 | 17 | 287 | 4.8 | 11.3 | 0.08 | 0.89 | 0.89 | 85 | 1005.6 |
| 20260506201643 | 17 | 242 | 3.2 | 4.8 | 0.08 | 0.89 | 0.89 | 88 | 1005.6 |
| 20260506200420 | 17 | 274 | 4.8 | 8.0 | 0.08 | 0.89 | 0.89 | 89 | 1005.7 |
| 20260506195151 | 17 | 225 | 4.8 | 9.7 | 0.05 | 0.86 | 0.86 | 87 | 1005.6 |
| 20260506193930 | 17 | 252 | 4.8 | 8.0 | 0.00 | 0.81 | 0.81 | 85 | 1005.6 |
| 20260506192808 | 17 | 237 | 4.8 | 9.7 | 0.00 | 0.81 | 0.81 | 84 | 1005.7 |
| 20260506191603 | 17 | 211 | 8.0 | 11.3 | 0.00 | 0.81 | 0.81 | 83 | 1005.5 |
| 20260506190418 | 17 | 242 | 6.4 | 9.7 | 0.00 | 0.81 | 0.81 | 84 | 1005.7 |
| 20260506185132 | 17 | 227 | 8.0 | 9.7 | 0.00 | 0.81 | 0.81 | 84 | 1005.7 |
| 20260506183948 | 17 | 235 | 3.2 | 8.0 | 0.00 | 0.81 | 0.81 | 87 | 1005.7 |
| 20260506182803 | 17 | 196 | 4.8 | 11.3 | 0.00 | 0.81 | 0.81 | 88 | 1005.8 |
| 20260506181620 | 16 | 230 | 6.4 | 12.9 | 0.00 | 0.81 | 0.81 | 89 | 1005.9 |
| 20260506180331 | 16 | 215 | 6.4 | 12.9 | 0.00 | 0.81 | 0.81 | 90 | 1006.0 |
| 20260506175147 | 16 | 219 | 8.0 | 12.9 | 0.00 | 0.81 | 0.81 | 92 | 1006.2 |
| 20260506174004 | 15 | 225 | 4.8 | 8.0 | 0.00 | 0.81 | 0.81 | 93 | 1006.1 |
| 20260506172820 | 15 | 232 | 8.0 | 12.9 | 0.00 | 0.81 | 0.81 | 93 | 1006.2 |
| 20260506171531 | 15 | 202 | 4.8 | 8.0 | 0.00 | 0.81 | 0.81 | 94 | 1006.1 |
| 20260506170348 | 15 | 234 | 6.4 | 11.3 | 0.00 | 0.81 | 0.81 | 94 | 1006.1 |
| 20260506165204 | 15 | 213 | 4.8 | 4.8 | 0.00 | 0.81 | 0.81 | 95 | 1006.2 |
| 20260506164019 | 15 | 218 | 4.8 | 4.8 | 0.00 | 0.81 | 0.81 | 95 | 1006.3 |
| 20260506162732 | 15 | 203 | 3.2 | 4.8 | 0.00 | 0.81 | 0.81 | 95 | 1006.3 |
| 20260506161548 | 15 | 231 | 1.6 | 1.6 | 0.00 | 0.81 | 0.81 | 94 | 1006.6 |
| 20260506160423 | 15 | 219 | 1.6 | 3.2 | 0.03 | 0.81 | 0.81 | 94 | 1006.6 |
| 20260506155220 | 15 | 227 | 4.8 | 4.8 | 0.03 | 0.81 | 0.81 | 94 | 1006.4 |
| 20260506153931 | 15 | 217 | 3.2 | 4.8 | 0.05 | 0.81 | 0.81 | 94 | 1006.3 |
| 20260506152749 | 14 | 221 | 3.2 | 4.8 | 0.08 | 0.81 | 0.81 | 94 | 1006.3 |
| 20260506151604 | 15 | 225 | 3.2 | 4.8 | 0.10 | 0.81 | 0.81 | 94 | 1006.1 |
| 20260506150440 | 14 | 205 | 3.2 | 4.8 | 0.10 | 0.79 | 0.79 | 94 | 1006.1 |
| 20260506145132 | 14 | 202 | 3.2 | 4.8 | 0.15 | 0.79 | 0.79 | 94 | 1006.2 |
| 20260506143948 | 14 | 219 | 4.8 | 9.7 | 0.15 | 0.76 | 0.76 | 94 | 1006.5 |
| 20260506142803 | 14 | 219 | 3.2 | 4.8 | 0.15 | 0.74 | 0.74 | 94 | 1006.3 |
| 20260506141620 | 14 | 214 | 3.2 | 4.8 | 0.20 | 0.71 | 0.71 | 94 | 1006.4 |
| 20260506140332 | 14 | 227 | 1.6 | 8.0 | 0.20 | 0.69 | 0.69 | 94 | 1006.4 |
| 20260506135147 | 14 | 203 | 3.2 | 4.8 | 0.20 | 0.64 | 0.64 | 93 | 1006.4 |
| 20260506134004 | 14 | 222 | 3.2 | 3.2 | 0.28 | 0.61 | 0.61 | 93 | 1006.4 |
| 20260506132820 | 14 | 227 | 6.4 | 9.7 | 0.30 | 0.58 | 0.58 | 93 | 1006.4 |
| 20260506131531 | 13 | 204 | 4.8 | 9.7 | 0.30 | 0.51 | 0.51 | 93 | 1006.5 |
| 20260506130348 | 13 | 179 | 1.6 | 3.2 | 0.30 | 0.48 | 0.48 | 94 | 1006.2 |
| 20260506125205 | 13 | 181 | 0.0 | 3.2 | 0.28 | 0.43 | 0.43 | 94 | 1006.6 |
| 20260506124041 | 13 | 257 | 0.0 | 1.6 | 0.20 | 0.33 | 0.33 | 94 | 1006.9 |
| 20260506122840 | 13 | 0.0 | 0.0 | 0.18 | 0.28 | 0.28 | 94 | 1007.1 | |
| 20260506121531 | 13 | 0.0 | 0.0 | 0.13 | 0.20 | 0.20 | 94 | 1007.2 | |
| 20260506120409 | 13 | 0.0 | 0.0 | 0.15 | 0.18 | 0.18 | 93 | 1007.0 | |
| 20260506115208 | 13 | 0.0 | 0.0 | 0.15 | 0.15 | 0.15 | 93 | 1006.6 | |
| 20260506114004 | 13 | 0.0 | 0.0 | 0.13 | 0.13 | 0.13 | 92 | 1006.6 | |
| 20260506112821 | 13 | 0.0 | 0.0 | 0.10 | 0.10 | 0.10 | 92 | 1006.5 | |
| 20260506111552 | 13 | 0.0 | 0.0 | 0.08 | 0.08 | 0.08 | 91 | 1006.5 | |
| 20260506110347 | 13 | 0.0 | 0.0 | 0.03 | 0.03 | 0.03 | 90 | 1006.4 | |
| 20260506105205 | 13 | 0.0 | 0.0 | 0.00 | 0.00 | 0.00 | 90 | 1006.1 | |
| 20260506104019 | 13 | 34 | 0.0 | 1.6 | 0.00 | 0.00 | 0.00 | 89 | 1006.0 |
| 20260506102733 | 13 | 0.0 | 0.0 | 0.00 | 0.00 | 0.00 | 89 | 1006.2 | |
| 20260506101548 | 14 | 0.0 | 0.0 | 0.00 | 0.00 | 0.00 | 88 | 1006.2 | |
| 20260506100424 | 14 | 35 | 1.6 | 3.2 | 0.00 | 0.00 | 0.00 | 89 | 1005.9 |
| 20260506095245 | 14 | 0.0 | 0.0 | 0.00 | 0.00 | 0.00 | 87 | 1005.9 | |
| 20260506094020 | 14 | 0.0 | 0.0 | 0.00 | 0.00 | 0.00 | 88 | 1005.9 | |
| 20260506092752 | 14 | 164 | 1.6 | 1.6 | 0.00 | 0.00 | 0.00 | 88 | 1005.8 |
| 20260506091549 | 14 | 77 | 0.0 | 1.6 | 0.00 | 0.00 | 0.00 | 88 | 1006.0 |
| 20260506090404 | 14 | 333 | 1.6 | 3.2 | 0.00 | 0.00 | 0.00 | 88 | 1006.0 |
| 20260506085204 | 15 | 0.0 | 0.0 | 0.00 | 0.00 | 0.00 | 85 | 1005.8 | |
| 20260506084019 | 15 | 179 | 0.0 | 1.6 | 0.00 | 0.00 | 0.00 | 85 | 1005.8 |
| 20260506082732 | 15 | 0.0 | 0.0 | 0.00 | 0.00 | 0.00 | 86 | 1005.9 | |
| 20260506081619 | 15 | 0.0 | 0.0 | 0.00 | 0.00 | 0.00 | 85 | 1005.9 | |
| 20260506080332 | 15 | 0.0 | 0.0 | 0.00 | 0.00 | 0.00 | 85 | 1006.1 | |
| 20260506072804 | 15 | 0.0 | 0.0 | 0.00 | 0.00 | 0.00 | 81 | 1006.0 |